Weather Roundup
Issued by NWS Chicago, IL

Home | Current Version | Previous Version | Graphics & Text | Print | Product List | Glossary Off
Versions: 1 2 3 4 5 6 7 8 9 10 11 12 13 14 15 16 17 18 19 20 21 22 23 24 25 26 27 28 29 30 31 32 33 34 35 36 37 38 39 40 41 42 43 44 45 46 47 48 49 50

000
NZUS59 KLOT 030621
HRRLOT

CHICAGO AREA WEATHER ROUNDUP
NATIONAL WEATHER SERVICE CHICAGO/ROMEOVILLE IL
100 AM CDT FRI JUL 03 2015

NOTE: "FAIR" INDICATES FEW OR NO CLOUDS BELOW 12,000 FEET WITH NO
SIGNIFICANT WEATHER AND/OR OBSTRUCTIONS TO VISIBILITY.

* THESE STATIONS ARE NOT UNDER NWS QUALITY CONTROL. THEY ALSO MAY NOT
  REPORT WEATHER SUCH AS PRECIPITATION OR FOG.

ILZ005-006-012>014-019>023-030700-
NORTHEAST ILLINOIS

CITY           SKY/WX    TMP DP  RH WIND       PRES   REMARKS
OHARE          CLOUDY    57  48  72 N3        30.00S
6HR MIN TEMP:  57; 6HR MAX TEMP:  63;

MIDWAY         CLOUDY    62  51  67 N6        29.99S
6HR MIN TEMP:  61; 6HR MAX TEMP:  66;

AURORA         MOCLDY    57  48  72 NE7       30.00R
6HR MIN TEMP:  57; 6HR MAX TEMP:  69;

LANSING*       PTCLDY    59  54  82 N3        29.99S
JOLIET*        MOCLDY    59  52  77 NE8       29.98F
WAUKEGAN       MOCLDY    54  48  80 N3        30.00S
6HR MIN TEMP:  52; 6HR MAX TEMP:  59;

DUPAGE AIRPORT PTCLDY    54  48  80 N6        30.00R
6HR MIN TEMP:  54; 6HR MAX TEMP:  66;

WHEELING       PTCLDY    56  47  71 NW3       30.02R
6HR MIN TEMP:  55; 6HR MAX TEMP:  62;

KANKAKEE*      MOCLDY    59  57  94 NE7       29.97F
MORRIS*        MOCLDY    58  52  81 CALM      29.96S
LEWIS AIRPORT* MOCLDY    58  50  75 NE9       29.99F
NORTHERLY IS     N/A     61  52  72 N6          N/A
$$

WIZ051-052-058>065-066-070>072-030700-
SOUTHEAST WISCONSIN

CITY           SKY/WX    TMP DP  RH WIND       PRES   REMARKS
MILWAUKEE      MOCLDY    56  47  71 CALM      30.02S
6HR MIN TEMP:  56; 6HR MAX TEMP:  60;

KENOSHA*       MOCLDY    50  46  86 CALM      30.01S
RACINE*        PTCLDY    56  46  69 NE3       30.02F
BURLINGTON     MOCLDY    49  47  95 CALM      30.02R
WAUKESHA       PTCLDY    52  45  76 CALM      30.02F
WEST BEND      PTCLDY    50  45  81 CALM      30.01F
$$

INZ001>003-010>013-019-020-030700-
NORTHWEST INDIANA

CITY           SKY/WX    TMP DP  RH WIND       PRES   REMARKS
GARY*          PTCLDY    62  59  91 N6        29.98F
6HR MIN TEMP:  60; 6HR MAX TEMP:  62;

MICHIGAN CITY* NOT AVBL
RENSSELAER*    NOT AVBL
VALPARAISO     MOCLDY    58  54  86 NE3       29.98F
$$

LMZ740>746-030700-
SOUTHERN LAKE MICHIGAN

STATION/POSITION TIME  SKY/WX   TEMP WIND        PRES    VSBY
                                AIR  DIR/SP/G
                 (UTC)          (F)  (DEG/KT/KT) (MB)    (MI)
HARRISON CRIB    0600            61  350/  7/  8   N/A
BURNHAM HARBOR   0600            61  350/  5/  9   N/A
CALUMET HARBOR   0500            60  340/  4/  5   N/A
BURNS HARBOR     0500            62   70/  8/ 10 1016.3R
MICHIGAN CITY    0600            59   50/  5/  6   N/A
$$

ABBREVIATIONS USED IN REMARKS
   TC - TEMPERATURE IN CELSIUS
  WCI - WIND CHILL INDEX
   HX - HEAT INDEX
  VSB - VISIBILITY
$$



USA.gov is the U.S. government's official web portal to all federal, state and local government web resources and services.